This demonstration page uses our WeatherBlox Daily Observations layout. Learn more.

Left ArrowRight Arrow

39.12711, -84.51439

Hourly Observations for July 16, 2021

Temp ( °F °C ) Dew Point ( °F °C ) Humidity (%) Winds ( mph kmh ) Pressure ( in mb ) Visibility ( mi km ) Precip ( " mm )
12:34 am 00:34 Partly Cloudy with Nearby Thunderstorms 76 24.4 70 21.1 82 82 SSW 5 7 30.03 1017 10 16 N/A
12:51 am 00:51 Mostly Cloudy 79 26 70 21 74 74 SW 9 15 30.03 1017 10 16 N/A
12:53 am 00:53 Mostly Cloudy 77 25 70 21.1 79 79 SW 7 11 30.03 1017 10 16 N/A
1:53 am 01:53 Mostly Clear 74 23.3 70 21.1 88 88 SSE 5 7 30.02 1017 10 16 N/A
2:53 am 02:53 Clear 74 23.3 70 21.1 88 88 N N/A 30.01 1016 10 16 N/A
3:53 am 03:53 Clear 70 21.1 68 20 93 93 N N/A 30.01 1016 8 13 N/A
4:53 am 04:53 Mostly Clear 71 21.7 69 20.6 94 94 N N/A 30.01 1016 7 11 N/A
5:53 am 05:53 Partly Cloudy 70 21.1 68 20 93 93 N N/A 30.02 1017 8 13 N/A
6:53 am 06:53 Mostly Sunny 71 21.7 69 20.6 94 94 N N/A 30.03 1017 10 16 N/A
7:53 am 07:53 Mostly Sunny 74 23.3 70 21.1 88 88 N N/A 30.04 1017 10 16 N/A
8:53 am 08:53 Mostly Sunny 76 24.4 71 21.7 85 85 SSE 7 11 30.04 1017 10 16 N/A
9:53 am 09:53 Sunny 79 26.1 72 22.2 79 79 S 9 15 30.04 1017 10 16 N/A
10:53 am 10:53 Sunny 82 27.8 73 22.8 74 74 S 7 11 30.04 1017 10 16 N/A
11:53 am 11:53 Mostly Cloudy 84 28.9 74 23.3 72 72 SSW 9 15 30.04 1017 10 16 N/A
12:53 pm 12:53 Mostly Cloudy 86 30 73 22.8 65 65 SSW 14 22 30.01 1016 10 16 N/A
1:53 pm 13:53 Mostly Cloudy 88 31.1 72 22.2 59 59 SW 15 24 29.99 1016 10 16 N/A
2:18 pm 14:18 Mostly Cloudy with Nearby Thunderstorms 86 30 72 22.2 63 63 SW 13 20 29.98 1015 10 16 N/A
2:40 pm 14:40 Mostly Cloudy with Thunderstorms 77 25 67 19.4 71 71 WNW 17 28 30.01 1016 5 8 0.00 0.00
2:53 pm 14:53 Cloudy with Thunderstorms 76 24.4 67 19.4 74 74 WNW 14 22 30.01 1016 4 6 0.00 0.00
3:14 pm 15:14 Cloudy with Thunderstorms 72 22.2 68 20 87 87 SSW 17 28 30.02 1017 3 5 0.03 0.76
3:53 pm 15:53 Mostly Sunny 71 21.7 68 20 90 90 ENE 3 6 30.01 1016 8 13 0.05 1.27
4:53 pm 16:53 Mostly Sunny 74 23.3 70 21.1 88 88 N N/A 29.99 1016 10 16 0.00 0.00
5:53 pm 17:53 Sunny 79 26.1 72 22.2 79 79 S 5 7 29.98 1015 10 16 N/A
6:53 pm 18:53 Sunny 79 26.1 72 22.2 79 79 S 8 13 29.97 1015 10 16 N/A
7:53 pm 19:53 Mostly Sunny 76 24.4 70 21.1 82 82 S 5 7 29.96 1015 10 16 N/A
8:53 pm 20:53 Sunny 76 24.4 71 21.7 85 85 N 3 6 29.96 1015 10 16 N/A
9:53 pm 21:53 Mostly Cloudy 76 24.4 71 21.7 85 85 NW 9 15 29.99 1016 10 16 N/A
10:03 pm 22:03 Cloudy 76 24.4 70 21.1 82 82 NNW 7 11 29.98 1015 10 16 N/A
10:53 pm 22:53 Mostly Cloudy with Light Rain 74 23.3 68 20 82 82 N N/A 29.99 1016 10 16 0.00 0.00
11:33 pm 23:33 Mostly Clear with Nearby Thunderstorms 72 22.2 70 21.1 94 94 N N/A 29.98 1015 10 16 0.02 0.51
11:53 pm 23:53 Mostly Cloudy with Thunderstorms 72 22.2 69 20.6 91 91 WNW 8 13 30.01 1016 4 6 0.08 2.03

Powered by AerisWeather